EW1505 Weather Reports


Display with metric or nautical units.
time (UTC)temp
F
wind
direction
speed
MPH
gust
MPH
rain 1hr
in
rain 24hr
in
rain mn
in
humidity
%
barometer
mb
20260503173121 60 219 6.0 13.0 0.00 0.02 0.01 37 1020.8
20260503172124 59 252 9.0 14.0 0.00 0.02 0.01 36 1021.0
20260503171221 59 254 5.0 11.0 0.00 0.02 0.01 37 1021.2
20260503170238 59 267 5.0 12.0 0.00 0.02 0.01 38 1021.3
20260503150224 53 253 5.0 8.0 0.00 0.02 0.01 53 1022.7
20260503131325 45 180 3.0 4.0 0.00 0.03 0.01 73 1023.3
20260503130324 44 180 7.0 10.0 0.00 0.03 0.01 77 1023.0
20260503110621 34 247 1.0 1.0 0.00 0.03 0.01 99 1022.4
20260503072923 33 292 0.0 0.0 0.00 0.02 0.00 95 1021.8
20260503071925 33 292 0.0 0.0 0.00 0.02 0.00 95 1021.7
20260503071841 33 292 0.0 0.0 0.00 0.02 0.00 96 1021.8
20260503070921 34 292 0.0 0.0 0.00 0.02 0.00 95 1021.9
20260503054622 34 360 0.0 0.0 0.00 0.02 0.00 94 1022.2
20260503053722 35 360 0.0 0.0 0.00 0.02 0.00 93 1022.2
20260503053624 35 360 0.0 0.0 0.00 0.02 0.00 93 1022.2
20260503052622 34 360 0.0 0.0 0.00 0.02 0.00 93 1022.2
20260503052521 34 360 0.0 0.0 0.00 0.02 0.00 93 1022.2
20260503045622 35 360 0.0 0.0 0.00 0.02 0.00 92 1022.1
20260503045539 35 360 0.0 0.0 0.00 0.02 0.00 92 1022.1
20260503042721 37 360 0.0 0.0 0.00 0.02 0.00 92 1022.2
20260503041821 37 360 0.0 0.0 0.00 0.02 0.00 91 1022.3
20260503040823 36 360 0.0 0.0 0.00 0.02 0.00 89 1022.1
20260503035847 36 360 0.0 0.0 0.00 0.02 0.02 90 1022.1
20260503034831 36 360 0.0 0.0 0.00 0.02 0.02 88 1022.2
20260503033829 36 360 0.0 0.0 0.00 0.02 0.02 87 1022.2
20260503032830 37 360 0.0 0.0 0.00 0.02 0.02 87 1022.2
20260503032730 37 360 0.0 0.0 0.00 0.02 0.02 87 1022.2
20260503031731 37 360 0.0 0.0 0.00 0.02 0.02 85 1022.3
20260503030729 37 360 0.0 0.0 0.00 0.02 0.02 85 1022.3
20260503025730 37 360 0.0 0.0 0.00 0.02 0.02 84 1022.2
20260503025631 37 360 0.0 0.0 0.00 0.02 0.02 84 1022.2
20260503024529 37 360 0.0 0.0 0.00 0.03 0.02 81 1022.3
20260503023531 38 360 0.0 0.0 0.00 0.03 0.02 80 1022.3
20260503023429 38 360 0.0 0.0 0.00 0.03 0.02 79 1022.2
20260503023329 38 360 0.0 0.0 0.00 0.03 0.02 78 1022.3
20260503022331 38 360 0.0 0.0 0.00 0.03 0.02 75 1022.3
20260503021430 39 360 0.0 0.0 0.00 0.03 0.02 72 1022.2
20260503021331 39 360 0.0 0.0 0.00 0.03 0.02 72 1022.3
20260503020429 40 360 0.0 0.0 0.00 0.03 0.02 69 1022.1
20260503015429 40 360 0.0 0.0 0.00 0.03 0.02 65 1022.0
20260503015330 40 360 0.0 0.0 0.00 0.03 0.02 65 1022.0
20260503013430 42 360 0.0 0.0 0.00 0.03 0.02 59 1021.7
20260503012529 43 360 0.0 0.0 0.00 0.03 0.02 58 1021.7
20260503012446 43 360 0.0 0.0 0.00 0.03 0.02 57 1021.7
20260503011431 44 360 0.0 0.0 0.00 0.03 0.02 56 1021.6
20260503010529 45 360 0.0 0.0 0.00 0.03 0.02 55 1021.5
20260503005530 46 360 0.0 2.0 0.00 0.03 0.02 53 1021.6
20260503004529 46 22 1.0 2.0 0.00 0.03 0.02 53 1021.4
20260503003546 47 22 0.0 0.0 0.00 0.03 0.02 50 1021.5
20260503001631 48 53 1.0 4.0 0.00 0.03 0.02 49 1021.3
20260503000647 49 348 1.0 6.0 0.00 0.03 0.02 47 1021.2
20260502235733 49 9 0.0 3.0 0.00 0.03 0.02 48 1021.1
20260502234732 50 20 4.0 6.0 0.00 0.03 0.02 47 1020.9
20260502234645 50 260 2.0 5.0 0.00 0.03 0.02 47 1021.0
20260502233730 50 22 0.0 0.0 0.00 0.03 0.02 46 1021.0
20260502232729 51 19 2.0 6.0 0.00 0.03 0.02 44 1020.8
20260502231732 51 331 4.0 8.0 0.00 0.03 0.02 44 1020.8
20260502230746 51 351 2.0 4.0 0.00 0.03 0.02 42 1020.8
20260502224830 52 338 0.0 1.0 0.00 0.03 0.02 42 1020.7
20260502224730 52 3 0.0 1.0 0.00 0.03 0.02 42 1020.7
20260502223730 52 347 3.0 7.0 0.00 0.03 0.02 40 1020.6
20260502221733 54 191 1.0 2.0 0.00 0.03 0.02 39 1020.4
20260502221632 54 292 0.0 1.0 0.00 0.03 0.02 38 1020.5
20260502220644 54 319 2.0 4.0 0.00 0.03 0.02 39 1020.4
20260502215729 54 157 2.0 5.0 0.00 0.03 0.02 39 1020.3
20260502214730 54 14 2.0 5.0 0.01 0.03 0.02 39 1020.4
20260502212730 54 171 2.0 3.0 0.01 0.03 0.02 40 1020.2
20260502212632 53 334 1.0 4.0 0.01 0.03 0.02 40 1020.3
20260502211631 54 27 5.0 7.0 0.01 0.03 0.02 39 1020.2
20260502210631 54 158 2.0 7.0 0.01 0.03 0.02 40 1020.2
20260502204630 53 298 1.0 3.0 0.00 0.02 0.01 40 1020.2
20260502203629 54 22 1.0 5.0 0.00 0.02 0.01 38 1020.3
20260502203531 54 19 4.0 7.0 0.00 0.02 0.01 38 1020.3
20260502200529 55 345 1.0 4.0 0.00 0.02 0.01 37 1020.4
20260502195530 57 330 0.0 2.0 0.00 0.02 0.01 37 1020.4
20260502194532 57 129 4.0 6.0 0.00 0.02 0.01 38 1020.4
20260502194432 57 299 1.0 3.0 0.00 0.02 0.01 38 1020.4
20260502193430 55 277 2.0 3.0 0.00 0.02 0.01 39 1020.6
20260502192430 55 331 0.0 3.0 0.00 0.02 0.01 39 1020.7
20260502191444 56 71 2.0 10.0 0.00 0.02 0.01 39 1020.6
20260502190345 56 19 1.0 2.0 0.00 0.02 0.01 39 1020.7
20260502185247 55 112 0.0 0.0 0.00 0.03 0.01 42 1020.8
20260502184331 54 29 1.0 4.0 0.00 0.03 0.01 39 1020.9
20260502183344 54 18 0.0 1.0 0.00 0.03 0.01 38 1021.0
20260502182429 55 278 2.0 7.0 0.00 0.03 0.01 38 1021.0
20260502181448 55 314 1.0 3.0 0.00 0.03 0.01 39 1021.0
20260502180529 55 351 3.0 5.0 0.00 0.03 0.01 41 1021.0